This is the latest recevied weather packets stored in our database for station/object K9NZF-2. If no packets are shown the sender has not sent any weather packets the latest 1 day(s).
| Time | Temp. | Humidity | Pressure | Rain* | Wind** | Luminosity | Snow |
|---|---|---|---|---|---|---|---|
| 1778044613 | 6.11° C | 93% | 971.4 hPa | 0.51 mm | 0.89 m/s, 14° | - | - |
| 1778044551 | 6.11° C | 93% | 971.4 hPa | 0.51 mm | 0.89 m/s, 14° | - | - |
| 1778044490 | 6.11° C | 93% | 971.4 hPa | 0.76 mm | 0.89 m/s, 8° | - | - |
| 1778044430 | 6.11° C | 93% | 971.4 hPa | 0.76 mm | 0.89 m/s, 358° | - | - |
| 1778044368 | 6.11° C | 93% | 971.4 hPa | 0.76 mm | 0.89 m/s, 356° | - | - |
| 1778044304 | 6.11° C | 93% | 971.4 hPa | 0.76 mm | 0.89 m/s, 349° | - | - |
| 1778044244 | 6.11° C | 93% | 971.4 hPa | 1.02 mm | 0.89 m/s, 328° | - | - |
| 1778044180 | 6.11° C | 93% | 971.4 hPa | 1.02 mm | 0.89 m/s, 320° | - | - |
| 1778044123 | 6.11° C | 93% | 971.4 hPa | 1.27 mm | 0.89 m/s, 320° | - | - |
| 1778044062 | 6.11° C | 93% | 971.4 hPa | 1.27 mm | 0.89 m/s, 335° | - | - |
| 1778043998 | 6.11° C | 93% | 971.4 hPa | 1.52 mm | 0.89 m/s, 330° | - | - |
| 1778043938 | 6.11° C | 93% | 971.3 hPa | 1.52 mm | 0.89 m/s, 340° | - | - |
| 1778043877 | 6.11° C | 93% | 971.2 hPa | 1.52 mm | 0.89 m/s, 22° | - | - |
| 1778043817 | 6.11° C | 93% | 971.2 hPa | 1.78 mm | 0.89 m/s, 330° | - | - |
| 1778043757 | 6.11° C | 93% | 971.2 hPa | 1.78 mm | 0.89 m/s, 349° | - | - |
| 1778043696 | 6.11° C | 93% | 971.2 hPa | 1.78 mm | 0.89 m/s, 330° | - | - |
| 1778043637 | 6.11° C | 93% | 971.2 hPa | 2.03 mm | 0.89 m/s, 346° | - | - |
| 1778043577 | 6.11° C | 93% | 971.2 hPa | 2.03 mm | 0.89 m/s, 347° | - | - |
| 1778043517 | 6.11° C | 93% | 971.1 hPa | 2.29 mm | 0.89 m/s, 331° | - | - |
| 1778043458 | 6.11° C | 93% | 971.1 hPa | 2.54 mm | 0.89 m/s, 352° | - | - |
| 1778043394 | 6.11° C | 93% | 971.1 hPa | 2.54 mm | 0.89 m/s, 352° | - | - |
| 1778043337 | 6.11° C | 93% | 971.1 hPa | 2.79 mm | 0.89 m/s, 338° | - | - |
| 1778043278 | 6.11° C | 93% | 971 hPa | 2.79 mm | 0.89 m/s, 318° | - | - |
| 1778043216 | 6.11° C | 93% | 970.9 hPa | 3.05 mm | 0.89 m/s, 339° | - | - |
| 1778043156 | 6.11° C | 93% | 971 hPa | 3.05 mm | 0.89 m/s, 19° | - | - |
* Rain latest hour (hover to see other rain measurements)
** Current wind speed in m/s (hover to see current wind gust speed)